Location: Gunnison Valley Observatory
(38.5087°N, 106.9386°W)
Time: 17:52:08
(UTC-06:00)

Amateur Radio Satellites - All Passes

Search period start: 24 October 2014 17:22
Search period end: 25 October 2014 17:22
Location: Gunnison Valley Observatory, 38.5087°N, 106.9386°W

Satellite Date Start Highest point End Downlink Frequencies (MHz)
Time Altitude Azimuth
ISS 24 Oct 17:37:03 17:37:53 11° 12° (NNE) 17:38:43 145.800 FM
JAS-2 24 Oct 17:47:39 17:53:28 77° 74° (ENE) 18:00:08 435.800 - 435.900 CW/SSB, 435.910 FM
Hamsat 24 Oct 18:13:01 18:17:15 88° 258° (WSW) 18:21:27 145.90 MHz
Saudisat 1A 24 Oct 18:24:08 18:26:41 15° 251° (WSW) 18:29:13 436.775 MHz
OPAL 24 Oct 18:33:44 18:38:43 89° 106° (ESE) 18:43:39 ?
STRAND 1 24 Oct 18:41:22 18:43:22 12° 90° (E) 18:45:21 ?
AO-40 24 Oct 19:01:29 22:33:23 40° 192° (SSW) 04:04:03 Beacon 2401.320
ISS 24 Oct 19:12:19 19:15:23 33° 31° (NNE) 19:18:27 145.800 FM
SO-67 24 Oct 19:34:49 19:38:14 75° 259° (W) 19:41:41 435.3500 MHz FM
JAS-2 24 Oct 19:36:23 19:39:28 14° 274° (W) 19:42:43 435.800 - 435.900 CW/SSB, 435.910 FM
HO-68 24 Oct 20:04:09 20:10:01 28° 61° (ENE) 20:15:54 435.675 MHz FM
OPAL 24 Oct 20:15:42 20:16:50 11° 302° (WNW) 20:17:57 ?
STRAND 1 24 Oct 20:17:53 20:23:02 72° 286° (WNW) 20:28:08 ?
KITSAT 1 24 Oct 20:26:21 20:33:06 28° 44° (NE) 20:39:48 435.175 FM
SO-50 24 Oct 20:38:56 20:40:59 12° 40° (NE) 20:43:02 436.795 FM
ISS 24 Oct 20:49:10 20:51:59 25° 227° (SW) 20:54:48 145.800 FM
ZACube-1 24 Oct 21:19:31 21:21:07 12° 64° (ENE) 21:22:42 437.345 MHz
UKube-1 24 Oct 21:22:19 21:26:09 32° 70° (ENE) 21:30:01 145.840 MHz, 145.915 MHz
RS-15 24 Oct 21:45:59 21:56:06 44° 109° (ESE) 22:06:06 29.354 - 29.394 USB, Beacon 29.352 USB
HO-68 24 Oct 21:50:20 21:57:18 55° 259° (WSW) 22:04:20 435.675 MHz FM
FUNcube-1 24 Oct 22:01:26 22:05:30 32° 71° (ENE) 22:09:32 145.950 - 145.970 MHz USB
Oscar 11 24 Oct 22:03:21 22:07:41 82° 76° (ENE) 22:12:01 145.825 FM, Beacon 2401.500 USB
SO-50 24 Oct 22:17:27 22:22:19 78° 58° (ENE) 22:27:12 436.795 FM
KITSAT 1 24 Oct 22:21:10 22:29:12 73° 245° (WSW) 22:37:12 435.175 FM
MaSat-1 24 Oct 22:51:55 22:53:07 11° 104° (ESE) 22:54:17 437.345 MHz
ZACube-1 24 Oct 22:52:21 22:56:55 69° 259° (WSW) 23:01:28 437.345 MHz
UKube-1 24 Oct 22:59:05 23:02:22 21° 265° (W) 23:05:40 145.840 MHz, 145.915 MHz
FUNcube-1 24 Oct 23:38:17 23:41:53 22° 265° (W) 23:45:27 145.950 - 145.970 MHz USB
UOSAT-12 24 Oct 23:41:17 23:45:54 51° 55° (NE) 23:50:25 437.025 FM, 437.400 FM
RS-15 24 Oct 23:57:34 00:08:11 53° 310° (NW) 00:18:50 29.354 - 29.394 USB, Beacon 29.352 USB
SO-50 25 Oct 00:00:43 00:02:13 11° 253° (WSW) 00:03:44 436.795 FM
Oscar 10/S400 25 Oct 00:03:09 01:09:43 34° 230° (SW) 05:41:10 145.825 - 145.975 CW/USB, Beacon 145.810 USB
KITSAT 1 25 Oct 00:20:45 00:23:10 12° 262° (W) 00:25:36 435.175 FM
MaSat-1 25 Oct 00:24:18 00:28:24 55° 296° (WNW) 00:32:08 437.345 MHz
UOSAT-12 25 Oct 01:22:37 01:25:36 17° 251° (WSW) 01:28:34 437.025 FM, 437.400 FM
Oscar 16 25 Oct 01:43:54 01:47:42 21° 94° (E) 01:51:29 437.025 USB, Beacon 2401.1428
JAS-1B 25 Oct 01:46:11 01:51:53 26° 97° (E) 01:58:21 435.800 - 435.900 CW/SSB
Uribyol 2 25 Oct 02:04:59 02:07:22 13° 91° (E) 02:09:45 436.500 FM
ITAMSAT 1 25 Oct 02:10:45 02:13:30 14° 91° (E) 02:16:13 435.822 SSB
RS-15 25 Oct 02:16:40 02:23:58 19° 341° (NNW) 02:31:21 29.354 - 29.394 USB, Beacon 29.352 USB
Gurwin Techsat 1B 25 Oct 02:32:19 02:34:11 12° 90° (E) 02:36:03 435.225 FM
Oscar 19 25 Oct 02:36:20 02:41:26 68° 102° (ESE) 02:46:31 437.125 CW, 437.150 USB
TMSAT-1 25 Oct 02:43:58 02:45:15 11° 89° (E) 02:46:32 436.925 FM
AO-27 25 Oct 02:54:41 02:59:37 40° 98° (E) 03:04:29 436.795 MHz FM
AO-Echo 25 Oct 03:15:28 03:20:49 86° 103° (ESE) 03:26:08 ?
Oscar 16 25 Oct 03:22:23 03:27:13 43° 289° (WNW) 03:32:00 437.025 USB, Beacon 2401.1428
Sapphire 25 Oct 03:23:03 03:27:33 28° 108° (ESE) 03:32:05 437.095 MHz 1200 baud AX-25 AFSK
JAS-1B 25 Oct 03:36:03 03:42:35 56° 288° (WNW) 03:50:22 435.800 - 435.900 CW/SSB
Uribyol 2 25 Oct 03:42:07 03:47:18 68° 286° (WNW) 03:52:26 436.500 FM
PCSat 25 Oct 03:44:45 03:49:54 48° 112° (ESE) 03:55:06 145.825 MHz
ITAMSAT 1 25 Oct 03:48:13 03:53:24 63° 287° (WNW) 03:58:31 435.822 SSB
Gurwin Techsat 1B 25 Oct 04:09:21 04:14:41 77° 285° (WNW) 04:19:58 435.225 FM
OPAL 25 Oct 04:10:49 04:13:58 17° 61° (ENE) 04:17:06 ?
Oscar 19 25 Oct 04:17:32 04:20:11 14° 298° (WNW) 04:22:50 437.125 CW, 437.150 USB
TMSAT-1 25 Oct 04:20:25 04:25:45 81° 285° (WNW) 04:31:02 436.925 FM
AO-27 25 Oct 04:34:45 04:38:51 24° 294° (WNW) 04:42:57 436.795 MHz FM
RS-15 25 Oct 04:35:11 04:42:28 19° 18° (NNE) 04:49:51 29.354 - 29.394 USB, Beacon 29.352 USB
AO-Echo 25 Oct 04:56:46 04:58:48 12° 299° (WNW) 05:00:50 ?
JAS-2 25 Oct 05:00:15 05:04:17 15° 87° (E) 05:08:17 435.800 - 435.900 CW/SSB, 435.910 FM
Uosat F 25 Oct 05:01:00 05:05:35 34° 98° (E) 05:10:07 435.120 FM
Sapphire 25 Oct 05:05:45 05:10:46 39° 305° (NW) 05:15:50 437.095 MHz 1200 baud AX-25 AFSK
AO-7 25 Oct 05:14:08 05:22:21 60° 103° (ESE) 05:30:32 29.400 - 29.500 MHz
PCSat 25 Oct 05:29:11 05:33:33 25° 310° (NW) 05:37:57 145.825 MHz
OPAL 25 Oct 05:47:15 05:52:20 61° 257° (WSW) 05:57:24 ?
STRAND 1 25 Oct 05:55:34 05:58:46 17° 63° (ENE) 06:01:59 ?
Hamsat 25 Oct 06:01:03 06:03:54 18° 93° (E) 06:06:44 145.90 MHz
Uosat F 25 Oct 06:40:02 06:44:11 26° 293° (WNW) 06:48:19 435.120 FM
JAS-2 25 Oct 06:42:20 06:50:12 82° 103° (ESE) 06:57:59 435.800 - 435.900 CW/SSB, 435.910 FM
RS-15 25 Oct 06:47:44 06:58:29 50° 49° (NE) 07:09:38 29.354 - 29.394 USB, Beacon 29.352 USB
Saudisat 1A 25 Oct 06:49:30 06:52:30 18° 110° (ESE) 06:55:31 436.775 MHz
AO-7 25 Oct 07:07:41 07:14:38 31° 301° (WNW) 07:21:36 29.400 - 29.500 MHz
PANSAT 25 Oct 07:20:43 07:22:07 12° 165° (SSE) 07:23:30 not established
STRAND 1 25 Oct 07:32:25 07:37:27 57° 259° (W) 07:42:32 ?
Hamsat 25 Oct 07:36:07 07:39:55 34° 288° (WNW) 07:43:44 145.90 MHz
Saudisat 1A 25 Oct 08:27:34 08:31:44 42° 306° (NW) 08:35:56 436.775 MHz
JAS-2 25 Oct 08:28:48 08:34:19 22° 300° (WNW) 08:39:52 435.800 - 435.900 CW/SSB, 435.910 FM
SO-67 25 Oct 08:32:18 08:35:39 49° 285° (WNW) 08:38:59 435.3500 MHz FM
PANSAT 25 Oct 08:58:57 09:01:36 18° 178° (S) 09:04:15 not established
RS-15 25 Oct 09:00:17 09:10:51 50° 250° (WSW) 09:21:54 29.354 - 29.394 USB, Beacon 29.352 USB
HO-68 25 Oct 09:19:51 09:26:09 32° 97° (E) 09:32:24 435.675 MHz FM
Oscar 11 25 Oct 09:53:38 09:56:21 16° 93° (E) 09:59:03 145.825 FM, Beacon 2401.500 USB
MaSat-1 25 Oct 10:12:07 10:14:16 25° 252° (WSW) 10:16:18 437.345 MHz
Oscar 10/S400 25 Oct 10:27:04 10:47:30 17° 156° (SSE) 10:59:31 145.825 - 145.975 CW/USB, Beacon 145.810 USB
PANSAT 25 Oct 10:38:55 10:41:07 15° 190° (S) 10:43:19 not established
ZACube-1 25 Oct 10:43:50 10:47:17 24° 95° (E) 10:50:41 437.345 MHz
UKube-1 25 Oct 10:47:20 10:51:42 73° 102° (ESE) 10:56:03 145.840 MHz, 145.915 MHz
KITSAT 1 25 Oct 10:55:34 11:00:44 19° 102° (ESE) 11:05:54 435.175 FM
HO-68 25 Oct 11:07:11 11:13:58 47° 293° (WNW) 11:20:43 435.675 MHz FM
FUNcube-1 25 Oct 11:27:50 11:32:06 81° 102° (ESE) 11:36:15 145.950 - 145.970 MHz USB
Oscar 11 25 Oct 11:28:40 11:32:40 39° 288° (WNW) 11:36:40 145.825 FM, Beacon 2401.500 USB
ISS 25 Oct 11:53:54 11:56:27 21° 131° (SE) 11:59:02 145.800 FM
Sapphire 25 Oct 12:12:20 12:16:11 19° 47° (NE) 12:20:01 437.095 MHz 1200 baud AX-25 AFSK
ZACube-1 25 Oct 12:20:08 12:23:37 25° 291° (WNW) 12:27:02 437.345 MHz
UKube-1 25 Oct 12:26:41 12:27:16 10° 298° (WNW) 12:27:50 145.840 MHz, 145.915 MHz
SO-50 25 Oct 12:31:23 12:35:25 34° 114° (ESE) 12:39:33 436.795 FM
JAS-1B 25 Oct 12:33:56 12:37:02 15° 61° (ENE) 12:40:04 435.800 - 435.900 CW/SSB
PCSat 25 Oct 12:34:15 12:39:00 30° 53° (NE) 12:43:42 145.825 MHz
KITSAT 1 25 Oct 12:47:02 12:55:07 84° 299° (WNW) 13:03:15 435.175 FM
AO-Echo 25 Oct 12:52:52 12:53:54 11° 59° (ENE) 12:54:56 ?
Oscar 16 25 Oct 12:59:26 13:03:43 27° 67° (ENE) 13:08:01 437.025 USB, Beacon 2401.1428
Uribyol 2 25 Oct 13:21:06 13:24:41 19° 64° (ENE) 13:28:16 436.500 FM
ITAMSAT 1 25 Oct 13:27:07 13:30:51 20° 64° (ENE) 13:34:36 435.822 SSB
ISS 25 Oct 13:29:50 13:32:58 38° 327° (NNW) 13:36:07 145.800 FM
Gurwin Techsat 1B 25 Oct 13:51:23 13:54:52 18° 63° (ENE) 13:58:22 435.225 FM
Oscar 19 25 Oct 13:51:42 13:56:52 84° 75° (ENE) 14:02:02 437.125 CW, 437.150 USB
UOSAT-12 25 Oct 13:52:04 13:55:30 21° 110° (ESE) 13:59:00 437.025 FM, 437.400 FM
Sapphire 25 Oct 13:54:42 14:00:05 66° 246° (WSW) 14:05:26 437.095 MHz 1200 baud AX-25 AFSK
TMSAT-1 25 Oct 14:02:23 14:05:40 17° 63° (ENE) 14:08:57 436.925 FM
AO-27 25 Oct 14:11:20 14:16:23 53° 72° (ENE) 14:21:28 436.795 MHz FM
SO-50 25 Oct 14:12:13 14:16:00 26° 312° (NW) 14:19:53 436.795 FM
PCSat 25 Oct 14:17:29 14:22:27 38° 250° (WSW) 14:27:23 145.825 MHz
JAS-1B 25 Oct 14:21:09 14:27:09 68° 257° (WSW) 14:32:49 435.800 - 435.900 CW/SSB
AO-7 25 Oct 14:24:03 14:28:11 15° 49° (NE) 14:32:18 29.400 - 29.500 MHz
AO-Echo 25 Oct 14:26:57 14:31:49 87° 257° (WSW) 14:36:54 ?
Oscar 16 25 Oct 14:38:16 14:42:55 34° 263° (W) 14:47:35 437.025 USB, Beacon 2401.1428
KITSAT 1 25 Oct 14:45:52 14:51:45 22° 321° (NW) 14:57:41 435.175 FM
Uribyol 2 25 Oct 14:58:39 15:03:43 52° 260° (W) 15:08:50 436.500 FM
ITAMSAT 1 25 Oct 15:04:57 15:09:58 48° 260° (W) 15:15:01 435.822 SSB
ISS 25 Oct 15:09:14 15:10:24 11° 346° (NNW) 15:11:34 145.800 FM
Saudisat 1A 25 Oct 15:17:27 15:19:32 13° 42° (NE) 15:21:36 436.775 MHz
Gurwin Techsat 1B 25 Oct 15:29:09 15:34:21 56° 260° (W) 15:39:35 435.225 FM
UOSAT-12 25 Oct 15:30:58 15:35:21 41° 307° (NW) 15:39:50 437.025 FM, 437.400 FM
TMSAT-1 25 Oct 15:39:50 15:45:03 61° 259° (W) 15:50:19 436.925 FM
AO-27 25 Oct 15:52:50 15:56:11 17° 268° (W) 15:59:34 436.795 MHz FM
AO-7 25 Oct 16:11:17 16:19:28 70° 69° (ENE) 16:27:42 29.400 - 29.500 MHz
Uosat F 25 Oct 16:12:49 16:17:29 41° 70° (ENE) 16:22:12 435.120 FM
JAS-2 25 Oct 16:53:51 16:58:57 29° 63° (ENE) 17:04:35 435.800 - 435.900 CW/SSB, 435.910 FM
Hamsat 25 Oct 16:54:51 16:56:08 11° 64° (ENE) 16:57:26 145.90 MHz
Saudisat 1A 25 Oct 16:55:14 16:59:41 83° 240° (WSW) 17:04:05 436.775 MHz
